Simultaneous Nadir Overpasses (SNOs) Predictions

Prediction of SNOs between GOES-16 and LANDSAT-8 Satellite Orbit:

Table of predicted SNOs for the next 14.0 days since TLE Epoch: 9/7/2024
Index Date Time (GOES-16) GOES-16 Lat,Lon LANDSAT-8 Lat,Lon Distance(km) Time Diff (sec)
1 09/07/2024 15:24:41 -0.05, -75.20 0.64, -78.38 361.64 80
2 09/09/2024 15:12:29 -0.05, -75.21 0.03, -75.42 24.65 80
3 09/11/2024 15:02:57 -0.04, -75.21 -0.64, -72.46 313.27 80
4 09/12/2024 03:21:41 0.04, -75.21 -0.45, -77.65 277.11 80
5 09/14/2024 03:09:27 0.04, -75.22 0.17, -74.68 61.46 80
6 09/16/2024 02:57:12 0.03, -75.23 0.77, -71.70 400.95 80
7 09/16/2024 15:21:07 -0.03, -75.24 0.30, -76.86 183.86 80
8 09/18/2024 15:06:11 -0.03, -75.26 -0.31, -73.88 157.01 80
9 09/19/2024 03:30:14 0.03, -75.26 -0.78, -79.06 432.35 80
10 09/20/2024 14:53:55 -0.03, -75.29 -0.97, -70.90 498.68 80
